Location: Bacea
(45.9500°N, 22.6667°E)
Time: 23:53:54
(UTC+00:00)

Cosmos 2369 - Pass Details

Date: 16 October 2021
Orbit: 838 x 857 km, 71.0° (Epoch: 26 November)

Event Time Altitude Azimuth Distance (km) Brightness Sun altitude
Rises 17:01:27 0° 206° (SSW) 3,380 7.2 -14.7°
Reaches altitude 10° 17:03:52 10° 207° (SSW) 2,451 6.4 -15.1°
Maximum altitude 17:09:30 85° 295° (WNW) 853 3.7 -16.1°
Drops below altitude 10° 17:15:13 10° 25° (NNE) 2,478 5.9 -17.0°
Sets 17:17:41 0° 27° (NNE) 3,420 6.6 -17.5°
